Regional Weather Roundup
Issued by NWS

Home | Current Version | Previous Version | Graphics & Text | Print | Product List | Glossary Off
Versions: 1 2 3 4 5 6 7 8 9 10 11 12 13 14 15 16 17 18 19 20 21 22 23 24 25 26 27 28 29 30 31 32 33 34 35 36 37 38 39 40 41 42 43 44 45 46 47 48 49 50

000
ASUS43 KTOP 250959
RWRKS

WEATHER ROUNDUP FOR KANSAS
NATIONAL WEATHER SERVICE GOODLAND KS
400 AM CST THU DEC 25 2014

NOTE:  "FAIR" INDICATES FEW OR NO CLOUDS BELOW 12,000 FEET WITH NO
SIGNIFICANT WEATHER AND/OR OBSTRUCTIONS TO VISIBILITY.

KSZ001>006-013>018-027>032-041>047-251100-
NORTHWEST KANSAS

CITY           SKY/WX    TMP DP  RH WIND       PRES   REMARKS
GOODLAND       CLOUDY    32  21  64 SW9       29.43F
HAYS           CLOUDY    30  16  55 SE13      29.55F WCI  20
HILL CITY      CLOUDY    33  19  56 S8        29.52F
RUSSELL        MOCLDY    34  21  59 S17       29.56F WCI  23
$$

KSZ061>065-074>080-084>089-251100-
SOUTHWEST KANSAS

CITY           SKY/WX    TMP DP  RH WIND       PRES   REMARKS
DODGE CITY     CLOUDY    32  18  56 S16       29.54F WCI  21
ELKHART          N/A     35  17  47 SW10        N/A  WCI  27
GARDEN CITY    CLOUDY    29  19  66 S10       29.51F WCI  20
GREAT BEND     CLOUDY    34  19  55 S14       29.61F WCI  24
LIBERAL        CLOUDY    34  18  51 S14       29.53F WCI  24
$$

KSZ066>073-081>083-090>101-251100-
SOUTHEAST KANSAS

CITY           SKY/WX    TMP DP  RH WIND       PRES   REMARKS
CHANUTE        CLEAR     32  29  88 S12       29.83F WCI  23
COFFEYVILLE    CLEAR     31  28  89 S8        29.85F
HUTCHINSON     MOCLDY    35  22  58 S14       29.67F WCI  26
NEWTON         MOCLDY    34  19  55 S12       29.71F WCI  25
PARSONS        CLEAR     32  29  88 S7        29.85F
WICHITA INTL   MOCLDY    34  24  67 S15       29.71F WCI  24
WICHITA JABRA  PTCLDY    33  23  66 S12       29.71F WCI  24
WINFIELD       MOCLDY    35  25  66 S13       29.76F WCI  26
$$

KSZ007>012-019>026-033>040-048>060-102>105-251100-
NORTHEAST KANSAS

CITY           SKY/WX    TMP DP  RH WIND       PRES   REMARKS
CONCORDIA      MOCLDY    35  24  64 S16       29.62F WCI  25
EMPORIA        PTCLDY    29  25  85 S17       29.74F WCI  17
LAWRENCE       CLEAR     29  25  85 SE7       29.79F
MANHATTAN      CLOUDY    36  25  64 SW12      29.70F WCI  28
OLATHE IND     CLEAR     29  27  92 S12       29.80F WCI  19
OLATHE EXE     CLEAR     31  28  89 S10       29.80F WCI  22
SALINA         PTCLDY    35  24  64 S12       29.66F WCI  27
TOPEKA BILLARD CLEAR     34  27  75 S8        29.77F
TOPEKA FORBES  PTCLDY    33  27  78 S10       29.76F WCI  25
$$



USA.gov is the U.S. government's official web portal to all federal, state and local government web resources and services.